STARLINK-11258, 62598

Orbit data source: Space-Track

STARLINK-11258, 62598 is a payload satellite owned by SpaceX/Seattle (US) in LEO that was launched on Mon, 13 Jan 2025 UTC via an FALCON 9 launch vehicle from the Air Force Eastern Test Range (AFETR). Payload-class satellites include a variety of spacecraft equipped with specific instruments for various scientific and technological missions. These include communications satellites like Starlink; space stations such as the ISS; scientific satellites like the Hubble; Earth observation satellites from companies like Planet Labs, Umbra, and HawkEye 360; GPS; miniature CubeSats for education and research; and military/defense satellites.

Loading next visibility...
Identifier
62598, 2025-008M
Orbit
LEO
Country
Flag of USUS
Related business
Manufacturer
SpaceX/Seattle
Mission
Operational Commercial Communications
Bus & Motor
STARLINK V2MD, Unknown motor
Mass
960 kg wet, ~910 kg dry
Launch date (UTC)
2025-01-13 (1 year ago)
Launch vehicle
FALCON 9
Launch site
Air Force Eastern Test Range (AFETR)
Object type
Payload
Rocket body
Debris
Shape & HBR
Box + 2 Pan, 18.1 m
Radar Cross Section
36.964 m², Large (>1 m²)

Expand to show TLE details & history
Last TLE update: 12 hours ago

TLE from 12 hours ago
0 STARLINK-11258
1 62598U 25008M   26125.07780165  .00243260  00000-0  18381-2 0  9995
2 62598  42.9996 146.1798 0001783 275.8580  84.2085 15.70920653 76155
Epoch: 2026-05-05T01:52Z
TLE epoch observation values (Epoch: 2026-05-05T01:52:02.062Z)
Latitude
0.00002°
Longitude
-104.78659°
Altitude
355.915 km
Speed
7.698 km/s
True Right ascension
09h 44m 43s
True Declination
0° 00' 00"
Sunlit
Object was in daylight at epoch
Visualization orbit readout
Latitude
Unknown
Longitude
Unknown
Altitude
Unknown
Speed
Unknown
Apparent Right ascension
Unknown
Apparent Declination
Unknown
Sunlit
N/A
Visualization observer readout
Local Sidereal Time
21:47:39
Azimuth
Unknown
Elevation
Unknown
Doppler factor
Unknown
Orbital elements
Apogee altitude
359.447 km
Perigee altitude
357.045 km
Semi-major axis
6,736.383 km
Eccentricity
0.00018
Inclination
42.9996°
RAAN
146.1798°
Arg. of periapsis
275.858°
True anomaly
84.22883°
Mean anomaly
84.2085°
Eccentric anomaly
84.21866°
Mean motion
3.92557 °/min
Orbital period
91.71 mins
BSTAR
0.0018381
Loading maneuver chart data...
Computing Atmospheric mass density...
Loading historical data...
Loading historical data...
Loading historical data...
Loading historical data...
Loading historical data...
Loading historical data...
Loading historical data...

Documentation

Showing up to 5 results
|